Butte, MT

6:49 AM MDT on March 29, 2017 (GMT -0600)
Mooney

Weather History for KBTM - March, 2014

Change the Weather History Date:

Friday, March 21, 2014

  Actual Average Record
Temperature  
Mean Temperature 21 °F 33 °F  
Max Temperature 31 °F 45 °F 67 °F (1928)
Min Temperature 10 °F 21 °F -14 °F (1943)
Degree Days  
Heating Degree Days 44 32  
Month to date heating degree days 742 739  
Since 1 July heating degree days 7120 7308  
Cooling Degree Days 0 0  
Month to date cooling degree days 0 0  
Year to date cooling degree days 0 0  
Moisture  
Dew Point 9 °F    
Average Humidity 57    
Maximum Humidity 83    
Minimum Humidity 31    
Precipitation  
Precipitation 0.00 in 0.03 in 0.20 in (1946)
Month to date precipitation 0.76 0.47  
Year to date precipitation 1.62 1.37  
Sea Level Pressure  
Sea Level Pressure 30.28 in    
Wind  
Wind Speed 5 mph (SSE)    
Max Wind Speed 17 mph    
Max Gust Speed 20 mph    
Visibility 10 miles    
Events      
T = Trace of Precipitation, MM = Missing Value Source: NWS Daily Summary

Daily Weather History Graph

Daily Weather History Graph

Search for Another Location

Airport or City:

Trip Planner

Search our weather history database for the weather conditions in past years. The results will help you decide how hot, cold, wet, or windy it might be!

Date:

Astronomy

Mar. 21, 2014 Rise Set
Actual Time 7:30 AM MDT 7:44 PM MDT
Civil Twilight 7:01 AM MDT 8:13 PM MDT
Nautical Twilight 6:26 AM MDT 8:49 PM MDT
Astronomical Twilight 5:50 AM MDT 9:25 PM MDT
Moon 12:20 AM MDT (3/21) 10:11 AM MDT (3/21)
Length of Visible Light 13h 12m
Length of Day
12h 13m
Waning Gibbous, 75% of the Moon is Illuminated
Mar 21
Waning Gibbous
Mar 23
Last Quarter
Mar 30
New
Apr 7
First Quarter
Apr 15
Full

Hourly Weather History & Observations

Time (MDT) Temp. Windchill Dew Point Humidity Pressure Visibility Wind Dir Wind Speed Gust Speed Precip Events Conditions
12:53 AM 19.9 °F 13.4 °F 10.9 °F 68% 30.24 in 10.0 mi WNW 4.6 mph - N/A   Clear
1:53 AM 19.0 °F 13.9 °F 10.9 °F 71% 30.25 in 10.0 mi NW 3.5 mph - N/A   Scattered Clouds
2:53 AM 17.1 °F 11.7 °F 10.9 °F 77% 30.27 in 10.0 mi SE 3.5 mph - N/A   Clear
3:53 AM 15.1 °F 5.2 °F 9.0 °F 77% 30.29 in 10.0 mi SSE 6.9 mph - N/A   Clear
4:53 AM 12.0 °F 1.5 °F 7.0 °F 80% 30.30 in 10.0 mi SSE 6.9 mph - N/A   Clear
5:53 AM 12.0 °F 4.1 °F 7.0 °F 80% 30.31 in 10.0 mi ESE 4.6 mph - N/A   Clear
6:53 AM 10.0 °F 0.4 °F 6.1 °F 84% 30.33 in 10.0 mi SSE 5.8 mph - N/A   Clear
7:53 AM 10.9 °F 4.7 °F 6.1 °F 81% 30.35 in 10.0 mi SSE 3.5 mph - N/A   Clear
8:53 AM 12.0 °F 5.9 °F 7.0 °F 80% 30.35 in 10.0 mi ESE 3.5 mph - N/A   Clear
9:53 AM 18.0 °F - 9.0 °F 68% 30.32 in 10.0 mi Calm Calm - N/A   Scattered Clouds
10:53 AM 24.1 °F - 10.0 °F 55% 30.30 in 10.0 mi Calm Calm - N/A   Clear
11:53 AM 26.1 °F 21.9 °F 6.1 °F 43% 30.28 in 10.0 mi NW 3.5 mph - N/A   Clear
12:53 PM 26.1 °F 21.9 °F 7.0 °F 44% 30.27 in 10.0 mi SSE 3.5 mph - N/A   Clear
1:53 PM 28.9 °F - 6.1 °F 38% 30.24 in 10.0 mi Calm Calm - N/A   Clear
2:53 PM 28.9 °F 22.8 °F 5.0 °F 36% 30.23 in 10.0 mi SSE 5.8 mph - N/A   Clear
3:53 PM 30.0 °F 25.2 °F 3.9 °F 33% 30.22 in 10.0 mi SSE 4.6 mph - N/A   Clear
4:53 PM 30.0 °F - 3.9 °F 33% 30.23 in 10.0 mi Calm Calm - N/A   Clear
5:53 PM 28.9 °F 18.6 °F 12.0 °F 49% 30.23 in 10.0 mi SE 12.7 mph - N/A   Partly Cloudy
6:53 PM 28.0 °F 18.1 °F 12.9 °F 53% 30.26 in 10.0 mi ESE 11.5 mph - N/A   Scattered Clouds
7:53 PM 26.1 °F 17.6 °F 10.9 °F 53% 30.27 in 10.0 mi East 8.1 mph - N/A   Clear
8:53 PM 25.0 °F 18.1 °F 12.0 °F 58% 30.28 in 10.0 mi WSW 5.8 mph - N/A   Overcast
9:53 PM 24.1 °F 17.0 °F 12.0 °F 60% 30.27 in 10.0 mi WNW 5.8 mph - N/A   Clear
10:53 PM 23.0 °F 15.8 °F 12.0 °F 63% 30.26 in 10.0 mi NNW 5.8 mph - N/A   Partly Cloudy
11:53 PM 21.0 °F 11.4 °F 12.0 °F 68% 30.27 in 10.0 mi South 8.1 mph - N/A   Scattered Clouds